Time,TemperatureF,DewpointF,PressureIn,WindDirection,WindDirectionDegrees,WindSpeedMPH,WindSpeedGustMPH,Humidity,HourlyPrecipIn,Conditions,Clouds,dailyrainin,SoftwareType,DateUTC
2013-11-07 00:04:00,36.6,34.0,29.99,NNW,340,2.0,-999.0,90,-99.99,,,0.00,weatherlink.com 1.10,2013-11-07 05:04:00,
2013-11-07 00:19:00,36.4,34.0,29.99,North,360,0.0,-999.0,90,-99.99,,,0.00,weatherlink.com 1.10,2013-11-07 05:19:00,
2013-11-07 00:34:00,36.3,34.0,29.99,North,11,2.0,-999.0,90,-99.99,,,0.00,weatherlink.com 1.10,2013-11-07 05:34:00,
2013-11-07 00:49:00,36.5,34.0,30.00,NW,323,2.0,-999.0,90,-99.99,,,0.00,weatherlink.com 1.10,2013-11-07 05:49:00,
2013-11-07 01:04:00,36.5,34.0,30.01,NW,322,0.0,-999.0,90,-99.99,,,0.00,weatherlink.com 1.10,2013-11-07 06:04:00,
2013-11-07 01:19:00,36.4,34.0,30.01,NW,323,1.0,-999.0,90,-99.99,,,0.00,weatherlink.com 1.10,2013-11-07 06:19:00,
2013-11-07 01:34:00,36.3,34.0,30.01,NW,323,0.0,-999.0,91,-99.99,,,0.00,weatherlink.com 1.10,2013-11-07 06:34:00,
2013-11-07 01:49:00,36.1,34.0,30.01,NW,323,0.0,-999.0,91,-99.99,,,0.00,weatherlink.com 1.10,2013-11-07 06:49:00,
2013-11-07 02:04:00,36.2,34.0,30.02,NW,323,0.0,-999.0,92,-99.99,,,0.00,weatherlink.com 1.10,2013-11-07 07:04:00,
2013-11-07 02:19:00,36.2,34.0,30.02,WSW,253,4.0,-999.0,92,-99.99,,,0.00,weatherlink.com 1.10,2013-11-07 07:19:00,
2013-11-07 02:34:00,36.1,34.0,30.02,WSW,255,1.0,-999.0,93,-99.99,,,0.00,weatherlink.com 1.10,2013-11-07 07:34:00,
2013-11-07 02:49:00,35.9,34.0,30.02,WSW,246,3.0,-999.0,93,-99.99,,,0.00,weatherlink.com 1.10,2013-11-07 07:49:00,
2013-11-07 03:04:00,35.9,34.0,30.03,SW,227,7.0,-999.0,93,-99.99,,,0.00,weatherlink.com 1.10,2013-11-07 08:04:00,
2013-11-07 03:19:00,35.6,34.0,30.02,WSW,250,2.0,-999.0,93,-99.99,,,0.00,weatherlink.com 1.10,2013-11-07 08:19:00,
2013-11-07 03:34:00,35.0,33.0,30.03,West,265,5.0,-999.0,93,-99.99,,,0.00,weatherlink.com 1.10,2013-11-07 08:34:00,
2013-11-07 03:49:00,35.0,34.0,30.03,West,277,1.0,-999.0,94,-99.99,,,0.01,weatherlink.com 1.10,2013-11-07 08:49:00,
2013-11-07 04:05:00,35.0,34.0,30.03,West,268,3.0,-999.0,94,-99.99,,,0.01,weatherlink.com 1.10,2013-11-07 09:05:00,
2013-11-07 04:19:00,35.0,34.0,30.03,SW,230,5.0,-999.0,94,-99.99,,,0.01,weatherlink.com 1.10,2013-11-07 09:19:00,
2013-11-07 04:34:00,35.2,34.0,30.03,West,261,2.0,-999.0,94,-99.99,,,0.01,weatherlink.com 1.10,2013-11-07 09:34:00,
2013-11-07 04:49:00,34.4,33.0,30.03,WSW,246,10.0,-999.0,94,-99.99,,,0.02,weatherlink.com 1.10,2013-11-07 09:49:00,
2013-11-07 05:04:00,34.0,33.0,30.04,West,271,1.0,-999.0,94,-99.99,,,0.02,weatherlink.com 1.10,2013-11-07 10:04:00,
2013-11-07 05:19:00,33.7,33.0,30.04,West,271,2.0,-999.0,95,-99.99,,,0.02,weatherlink.com 1.10,2013-11-07 10:19:00,
2013-11-07 05:34:00,33.8,33.0,30.05,West,271,1.0,-999.0,95,-99.99,,,0.02,weatherlink.com 1.10,2013-11-07 10:34:00,
2013-11-07 05:49:00,34.1,33.0,30.05,NW,321,3.0,-999.0,95,-99.99,,,0.02,weatherlink.com 1.10,2013-11-07 10:49:00,
2013-11-07 06:04:00,34.1,33.0,30.05,NW,307,0.0,-999.0,95,-99.99,,,0.02,weatherlink.com 1.10,2013-11-07 11:04:00,
2013-11-07 06:19:00,34.0,33.0,30.04,NW,307,0.0,-999.0,95,-99.99,,,0.02,weatherlink.com 1.10,2013-11-07 11:19:00,
2013-11-07 06:34:00,33.9,33.0,30.04,NW,307,2.0,-999.0,95,-99.99,,,0.02,weatherlink.com 1.10,2013-11-07 11:34:00,
2013-11-07 06:49:00,33.9,33.0,30.05,West,259,5.0,-999.0,95,-99.99,,,0.02,weatherlink.com 1.10,2013-11-07 11:49:00,
2013-11-07 07:04:00,33.8,33.0,30.05,WSW,256,0.0,-999.0,95,-99.99,,,0.02,weatherlink.com 1.10,2013-11-07 12:04:00,
2013-11-07 07:19:00,33.8,33.0,30.05,WSW,256,0.0,-999.0,95,-99.99,,,0.02,weatherlink.com 1.10,2013-11-07 12:19:00,
2013-11-07 07:35:00,33.7,33.0,30.06,WSW,256,0.0,-999.0,95,-99.99,,,0.02,weatherlink.com 1.10,2013-11-07 12:35:00,
2013-11-07 07:50:00,33.6,32.0,30.06,WSW,256,0.0,-999.0,95,-99.99,,,0.02,weatherlink.com 1.10,2013-11-07 12:50:00,
2013-11-07 08:05:00,33.5,32.0,30.07,WSW,256,0.0,-999.0,95,-99.99,,,0.02,weatherlink.com 1.10,2013-11-07 13:05:00,
2013-11-07 08:20:00,33.5,32.0,30.07,WSW,256,0.0,-999.0,95,-99.99,,,0.02,weatherlink.com 1.10,2013-11-07 13:20:00,
2013-11-07 08:35:00,33.5,32.0,30.07,WSW,256,0.0,-999.0,95,-99.99,,,0.02,weatherlink.com 1.10,2013-11-07 13:35:00,
2013-11-07 08:50:00,33.5,33.0,30.07,WSW,256,0.0,-999.0,96,-99.99,,,0.02,weatherlink.com 1.10,2013-11-07 13:50:00,
2013-11-07 09:05:00,33.6,32.0,30.07,WSW,250,0.0,-999.0,95,-99.99,,,0.02,weatherlink.com 1.10,2013-11-07 14:05:00,
2013-11-07 09:20:00,33.5,32.0,30.07,WSW,250,0.0,-999.0,95,-99.99,,,0.02,weatherlink.com 1.10,2013-11-07 14:20:00,
2013-11-07 09:35:00,33.5,33.0,30.08,WSW,250,0.0,-999.0,96,-99.99,,,0.02,weatherlink.com 1.10,2013-11-07 14:35:00,
2013-11-07 09:50:00,33.6,33.0,30.08,WSW,250,0.0,-999.0,96,-99.99,,,0.02,weatherlink.com 1.10,2013-11-07 14:50:00,
2013-11-07 10:05:00,33.7,33.0,30.08,WSW,250,0.0,-999.0,96,-99.99,,,0.02,weatherlink.com 1.10,2013-11-07 15:05:00,
2013-11-07 10:20:00,33.9,33.0,30.08,WSW,249,3.0,-999.0,96,-99.99,,,0.02,weatherlink.com 1.10,2013-11-07 15:20:00,
2013-11-07 10:35:00,33.6,33.0,30.08,WSW,246,0.0,-999.0,96,-99.99,,,0.02,weatherlink.com 1.10,2013-11-07 15:35:00,
2013-11-07 10:50:00,33.7,33.0,30.08,WSW,249,0.0,-999.0,96,-99.99,,,0.02,weatherlink.com 1.10,2013-11-07 15:50:00,
2013-11-07 11:05:00,34.0,33.0,30.08,WSW,249,0.0,-999.0,96,-99.99,,,0.02,weatherlink.com 1.10,2013-11-07 16:05:00,
2013-11-07 11:35:00,34.4,33.0,30.08,WSW,240,2.0,-999.0,96,-99.99,,,0.02,weatherlink.com 1.10,2013-11-07 16:35:00,
2013-11-07 11:50:00,34.9,34.0,30.08,WNW,288,6.0,-999.0,96,-99.99,,,0.02,weatherlink.com 1.10,2013-11-07 16:50:00,
2013-11-07 12:05:00,34.9,34.0,30.08,WSW,249,5.0,-999.0,96,-99.99,,,0.02,weatherlink.com 1.10,2013-11-07 17:05:00,
2013-11-07 12:20:00,34.4,33.0,30.08,West,275,6.0,-999.0,96,-99.99,,,0.02,weatherlink.com 1.10,2013-11-07 17:20:00,
2013-11-07 12:50:00,35.4,34.0,30.07,NW,311,5.0,-999.0,96,-99.99,,,0.02,weatherlink.com 1.10,2013-11-07 17:50:00,
2013-11-07 13:05:00,35.3,34.0,30.07,WNW,291,7.0,-999.0,95,-99.99,,,0.02,weatherlink.com 1.10,2013-11-07 18:05:00,
2013-11-07 13:20:00,36.0,35.0,30.06,West,278,7.0,-999.0,95,-99.99,,,0.02,weatherlink.com 1.10,2013-11-07 18:20:00,
2013-11-07 13:35:00,35.3,34.0,30.07,West,281,4.0,-999.0,95,-99.99,,,0.02,weatherlink.com 1.10,2013-11-07 18:35:00,
2013-11-07 13:50:00,35.5,34.0,30.07,West,277,2.0,-999.0,94,-99.99,,,0.02,weatherlink.com 1.10,2013-11-07 18:50:00,
2013-11-07 14:05:00,36.1,35.0,30.07,WNW,296,3.0,-999.0,94,-99.99,,,0.02,weatherlink.com 1.10,2013-11-07 19:05:00,
2013-11-07 14:20:00,36.3,35.0,30.07,WSW,254,6.0,-999.0,93,-99.99,,,0.03,weatherlink.com 1.10,2013-11-07 19:20:00,
2013-11-07 14:35:00,36.4,35.0,30.07,WSW,248,5.0,-999.0,93,-99.99,,,0.04,weatherlink.com 1.10,2013-11-07 19:35:00,
2013-11-07 14:50:00,36.1,34.0,30.07,West,261,4.0,-999.0,92,-99.99,,,0.06,weatherlink.com 1.10,2013-11-07 19:50:00,
2013-11-07 15:05:00,35.9,34.0,30.07,WSW,245,9.0,-999.0,92,-99.99,,,0.06,weatherlink.com 1.10,2013-11-07 20:05:00,
2013-11-07 15:20:00,36.1,34.0,30.07,WSW,258,6.0,-999.0,92,-99.99,,,0.10,weatherlink.com 1.10,2013-11-07 20:20:00,
2013-11-07 15:35:00,36.2,34.0,30.07,WSW,248,0.0,-999.0,92,-99.99,,,0.13,weatherlink.com 1.10,2013-11-07 20:35:00,
2013-11-07 15:50:00,36.1,34.0,30.07,WSW,249,4.0,-999.0,92,-99.99,,,0.15,weatherlink.com 1.10,2013-11-07 20:50:00,
2013-11-07 16:05:00,36.3,34.0,30.07,WSW,256,4.0,-999.0,91,-99.99,,,0.16,weatherlink.com 1.10,2013-11-07 21:05:00,
2013-11-07 16:20:00,35.9,34.0,30.07,West,277,4.0,-999.0,91,-99.99,,,0.17,weatherlink.com 1.10,2013-11-07 21:20:00,
2013-11-07 16:35:00,34.4,32.0,30.08,NW,319,8.0,-999.0,91,-99.99,,,0.17,weatherlink.com 1.10,2013-11-07 21:35:00,
2013-11-07 16:50:00,34.4,32.0,30.08,WNW,299,1.0,-999.0,92,-99.99,,,0.18,weatherlink.com 1.10,2013-11-07 21:50:00,
2013-11-07 17:05:00,34.4,32.0,30.08,WNW,299,0.0,-999.0,92,-99.99,,,0.19,weatherlink.com 1.10,2013-11-07 22:05:00,
2013-11-07 17:20:00,34.4,32.0,30.08,WNW,294,5.0,-999.0,92,-99.99,,,0.19,weatherlink.com 1.10,2013-11-07 22:20:00,
2013-11-07 17:35:00,34.8,33.0,30.09,NNW,345,2.0,-999.0,91,-99.99,,,0.19,weatherlink.com 1.10,2013-11-07 22:35:00,
2013-11-07 17:50:00,34.4,32.0,30.09,NNW,341,5.0,-999.0,91,-99.99,,,0.20,weatherlink.com 1.10,2013-11-07 22:50:00,
2013-11-07 18:05:00,34.1,32.0,30.09,NW,315,1.0,-999.0,92,-99.99,,,0.20,weatherlink.com 1.10,2013-11-07 23:05:00,
2013-11-07 18:20:00,34.1,32.0,30.09,NW,314,2.0,-999.0,92,-99.99,,,0.20,weatherlink.com 1.10,2013-11-07 23:20:00,
2013-11-07 18:36:00,34.0,32.0,30.10,WNW,298,4.0,-999.0,92,-99.99,,,0.20,weatherlink.com 1.10,2013-11-07 23:36:00,
2013-11-07 18:50:00,33.5,32.0,30.11,WNW,293,12.0,-999.0,93,-99.99,,,0.20,weatherlink.com 1.10,2013-11-07 23:50:00,
2013-11-07 19:05:00,33.4,32.0,30.10,NW,318,3.0,-999.0,93,-99.99,,,0.20,weatherlink.com 1.10,2013-11-08 00:05:00,
2013-11-07 19:20:00,33.6,32.0,30.10,NW,323,2.0,-999.0,94,-99.99,,,0.20,weatherlink.com 1.10,2013-11-08 00:20:00,
2013-11-07 19:35:00,33.4,32.0,30.10,NW,325,7.0,-999.0,94,-99.99,,,0.20,weatherlink.com 1.10,2013-11-08 00:35:00,
2013-11-07 19:50:00,32.5,31.0,30.10,NNW,341,2.0,-999.0,94,-99.99,,,0.20,weatherlink.com 1.10,2013-11-08 00:50:00,
2013-11-07 20:05:00,32.1,31.0,30.10,North,349,0.0,-999.0,94,-99.99,,,0.20,weatherlink.com 1.10,2013-11-08 01:05:00,
2013-11-07 20:20:00,31.5,30.0,30.10,North,349,0.0,-999.0,93,-99.99,,,0.20,weatherlink.com 1.10,2013-11-08 01:20:00,
2013-11-07 20:35:00,31.5,30.0,30.10,North,349,0.0,-999.0,94,-99.99,,,0.21,weatherlink.com 1.10,2013-11-08 01:35:00,
2013-11-07 20:50:00,31.7,30.0,30.10,North,349,0.0,-999.0,94,-99.99,,,0.21,weatherlink.com 1.10,2013-11-08 01:50:00,
2013-11-07 21:05:00,32.2,31.0,30.10,NW,310,0.0,-999.0,94,-99.99,,,0.21,weatherlink.com 1.10,2013-11-08 02:05:00,
2013-11-07 21:20:00,32.4,31.0,30.10,NNW,327,0.0,-999.0,94,-99.99,,,0.21,weatherlink.com 1.10,2013-11-08 02:20:00,
2013-11-07 21:35:00,33.5,32.0,30.11,NW,326,4.0,-999.0,94,-99.99,,,0.21,weatherlink.com 1.10,2013-11-08 02:35:00,
2013-11-07 21:51:00,33.1,32.0,30.11,NNW,344,1.0,-999.0,94,-99.99,,,0.21,weatherlink.com 1.10,2013-11-08 02:51:00,
2013-11-07 22:06:00,32.3,31.0,30.11,North,10,1.0,-999.0,94,-99.99,,,0.21,weatherlink.com 1.10,2013-11-08 03:06:00,
2013-11-07 22:21:00,32.4,31.0,30.12,North,10,0.0,-999.0,94,-99.99,,,0.21,weatherlink.com 1.10,2013-11-08 03:21:00,
2013-11-07 22:36:00,32.8,31.0,30.12,North,360,1.0,-999.0,94,-99.99,,,0.21,weatherlink.com 1.10,2013-11-08 03:36:00,
2013-11-07 22:51:00,32.9,31.0,30.12,North,5,2.0,-999.0,94,-99.99,,,0.21,weatherlink.com 1.10,2013-11-08 03:51:00,
2013-11-07 23:06:00,32.8,31.0,30.11,NNW,342,4.0,-999.0,94,-99.99,,,0.21,weatherlink.com 1.10,2013-11-08 04:06:00,
2013-11-07 23:21:00,32.5,31.0,30.12,NNW,332,3.0,-999.0,94,-99.99,,,0.21,weatherlink.com 1.10,2013-11-08 04:21:00,
2013-11-07 23:36:00,32.6,31.0,30.12,NNW,332,2.0,-999.0,93,-99.99,,,0.21,weatherlink.com 1.10,2013-11-08 04:36:00,
2013-11-07 23:51:00,32.6,31.0,30.12,North,355,2.0,-999.0,93,-99.99,,,0.21,weatherlink.com 1.10,2013-11-08 04:51:00,